This is the latest recevied weather packets stored in our database for station/object PA1CD-13. If no packets are shown the sender has not sent any weather packets the latest 1 day(s).
| Time | Temp. | Humidity | Pressure | Rain* | Wind** | Luminosity | Snow |
|---|---|---|---|---|---|---|---|
| 1777983331 | 13.33° C | 62% | 1010.7 hPa | 0 mm | 0 m/s | 869 W/m² | - |
| 1777983211 | 13.33° C | 63% | 1010.6 hPa | 0 mm | 1.79 m/s, 104° | 869 W/m² | - |
| 1777983091 | 13.33° C | 62% | 1010.6 hPa | 0 mm | 2.68 m/s, 0° | 851 W/m² | - |
| 1777982971 | 13.33° C | 62% | 1010.6 hPa | 0 mm | 1.79 m/s, 82° | 222 W/m² | - |
| 1777982852 | 13.33° C | 62% | 1010.5 hPa | 0 mm | 0 m/s | 798 W/m² | - |
| 1777982734 | 13.33° C | 63% | 1010.6 hPa | 0 mm | 1.34 m/s, 0° | 877 W/m² | - |
| 1777982588 | 13.33° C | 62% | 1010.6 hPa | 0 mm | 2.24 m/s, 0° | 874 W/m² | - |
| 1777982467 | 13.33° C | 62% | 1010.7 hPa | 0 mm | 0.45 m/s, 69° | 285 W/m² | - |
| 1777982341 | 13.33° C | 62% | 1010.7 hPa | 0 mm | 0 m/s | 297 W/m² | - |
| 1777982103 | 13.33° C | 62% | 1010.8 hPa | 0 mm | 0.89 m/s, 0° | 348 W/m² | - |
| 1777981982 | 13.33° C | 62% | 1010.8 hPa | 0 mm | 3.13 m/s, 62° | 930 W/m² | - |
| 1777981862 | 13.33° C | 63% | 1010.9 hPa | 0 mm | 0.89 m/s, 78° | 930 W/m² | - |
| 1777981742 | 13.33° C | 63% | 1010.8 hPa | 0 mm | 1.34 m/s, 47° | 930 W/m² | - |
| 1777981622 | 13.33° C | 62% | 1010.9 hPa | 0 mm | 0.89 m/s, 61° | 383 W/m² | - |
| 1777981503 | 13.33° C | 63% | 1010.8 hPa | 0 mm | 1.79 m/s, 0° | 1069 W/m² | - |
| 1777981381 | 13.33° C | 63% | 1010.9 hPa | 0 mm | 4.02 m/s, 107° | 853 W/m² | - |
| 1777981261 | 13.33° C | 63% | 1010.8 hPa | 0 mm | 1.79 m/s, 71° | 853 W/m² | - |
| 1777981142 | 13.33° C | 63% | 1010.8 hPa | 0 mm | 2.24 m/s, 0° | 853 W/m² | - |
| 1777981021 | 13.33° C | 62% | 1010.8 hPa | 0 mm | 3.13 m/s, 0° | 1027 W/m² | - |
| 1777980902 | 13.33° C | 62% | 1010.7 hPa | 0 mm | 1.34 m/s, 78° | 578 W/m² | - |
| 1777980782 | 13.33° C | 63% | 1010.7 hPa | 0 mm | 2.24 m/s, 0° | 578 W/m² | - |
| 1777980661 | 13.33° C | 63% | 1010.8 hPa | 0 mm | 1.79 m/s, 63° | 578 W/m² | - |
| 1777980541 | 13.33° C | 63% | 1010.7 hPa | 0 mm | 1.79 m/s, 0° | 355 W/m² | - |
| 1777980421 | 13.33° C | 63% | 1010.8 hPa | 0 mm | 1.79 m/s, 65° | 366 W/m² | - |
| 1777980302 | 13.89° C | 62% | 1010.8 hPa | 0 mm | 2.24 m/s, 0° | 378 W/m² | - |
* Rain latest hour (hover to see other rain measurements)
** Current wind speed in m/s (hover to see current wind gust speed)